Showing default

ORBCOMM FM 3, 25158

Orbit data source: Space-Track

ORBCOMM FM 3, 25158 is a payload satellite owned by Orbcomm (US) in LEO that was launched on Tue, 10 Feb 1998 UTC via a TAURUS 2210 launch vehicle from the Air Force Western Test Range (AFWTR). Payload-class satellites include a variety of spacecraft equipped with specific instruments for various scientific and technological missions. These include communications satellites like Starlink; space stations such as the ISS; scientific satellites like the Hubble; Earth observation satellites from companies like Planet Labs, Umbra, and HawkEye 360; GPS; miniature CubeSats for education and research; and military/defense satellites.

Loading next visibility...
Identifier
25158, 1998-007B
Orbit
LEO
Country
Flag of USUS / ORB
Related business
Manufacturer
OSC-Germantown
Mission
Non-operational Commercial Communications
Bus & Motor
MICROSTAR, Unknown motor
Mass
42 kg wet, 42 kg dry
Launch date (UTC)
1998-02-10 (28 years ago)
Launch vehicle
TAURUS 2210
Launch site
Air Force Western Test Range (AFWTR)
Object type
Payload
Rocket body
Debris
Shape & HBR
Cyl + 2 Pan, 2.1 m
Radar Cross Section
1.484 m², Medium (>0.1 m² and < 1m²)

Expand to show TLE details & history
Last TLE update: 17 hours ago

TLE from 17 hours ago
0 ORBCOMM FM 3
1 25158U 98007B   25348.91760328  .00001011  00000-0  39598-3 0  9993
2 25158 107.9632 146.9744 0046629 290.9983  68.6173 14.35031165449965
Epoch: 2025-12-14T22:01Z
TLE epoch observation values (Epoch: 2025-12-14T22:01:20.923Z)
Latitude
0.00003°
Longitude
92.81357°
Altitude
765.425 km
Speed
7.478 km/s
True Right ascension
09h 47m 53s
True Declination
0° 00' 00"
Sunlit
Object was in daylight at epoch
Visualization orbit readout
Latitude
Unknown
Longitude
Unknown
Altitude
Unknown
Speed
Unknown
Apparent Right ascension
Unknown
Apparent Declination
Unknown
Sunlit
N/A
Visualization observer readout
Local Sidereal Time
13:23:51
Azimuth
Unknown
Elevation
Unknown
Doppler factor
Unknown
Orbital elements
Apogee altitude
806.112 km
Perigee altitude
739.424 km
Semi-major axis
7,150.905 km
Eccentricity
0.00466
Inclination
107.9632°
RAAN
146.9744°
Arg. of periapsis
290.9983°
True anomaly
69.1159°
Mean anomaly
68.6173°
Eccentric anomaly
68.8665°
Mean motion
3.58923 °/min
Orbital period
100.3 mins
BSTAR
0.00039598
Loading maneuver chart data...
Computing Atmospheric mass density...
Loading historical data...
Loading historical data...
Loading historical data...
Loading historical data...
Loading historical data...
Loading historical data...
Loading historical data...
Other satellites on launch #7 in the year 1998 (1998-02-10 UTC)

Documentation

Showing up to 5 results
|